Вернуться в каталог

ICEYE-X58

АктивенНаукаSSO
NORAD 66751·PAYLOAD·🇫🇮 Finland

Запущен Nov 28, 2025 с Vandenberg Space Force Base

Loading…

Ближайшие Пролёты (ближайшие 24 часа)

TLE

СвежийSource: Space-Track

Эпоха: Sep 14, 2026, 11:23 UTC

1 66751U 25276CP  26257.47479556  .00002199  00000-0  11286-3 0  9998
2 66751  97.4130 329.0783 0004118  46.6542 313.5034 15.17546884 43953

Отслеживайте ICEYE-X58 в реальном времени с AllMySat

Download on the App Store